Location: Unspecified
(0.0000°N, 0.0000°E)
Time: 08:31:26
(UTC+00:00)

Amateur Radio Satellites - All Passes

Search period start: 04 March 2015 08:01
Search period end: 05 March 2015 08:01
Location: Unspecified, 0.0000°N, 0.0000°E

Satellite Date Start Highest point End Downlink Frequencies (MHz)
Time Altitude Azimuth
CUTE 1.7 + AOD 2 04 Mar 08:07:31 08:11:29 38° 101° (E) 08:15:31 437.475
GOMX 1 04 Mar 08:28:09 08:32:17 86° 101° (E) 08:36:29 467.674
BRITE-PL 04 Mar 08:30:49 08:34:50 47° 281° (W) 08:38:50 437.365/2234.400
AAUSAT CUBESAT 2 04 Mar 08:45:48 08:50:00 76° 101° (E) 08:54:14 437.432
Oscar 11 04 Mar 08:49:06 08:52:53 30° 101° (E) 08:56:46 145.826/435.025
COMPASS 1 04 Mar 08:49:30 08:53:43 79° 282° (WNW) 08:57:59 437.405
CINEMA 3 04 Mar 08:53:39 08:57:42 51° 101° (ESE) 09:01:55 145.822/145.860
DOVE 4 04 Mar 08:56:14 09:00:18 59° 281° (W) 09:04:28 437.250
CUBEBUG 2 04 Mar 09:05:00 09:08:48 34° 101° (ESE) 09:12:46 437.445
DX 1 04 Mar 09:16:02 09:19:40 28° 101° (E) 09:23:25 434.975-435.025
TIGRISAT 04 Mar 09:18:07 09:19:09 11° 81° (E) 09:20:32 435.000
RS-15 04 Mar 09:18:53 09:30:39 67° 69° (ENE) 09:42:50 29.354- 29.394
HO-68 04 Mar 09:18:59 09:25:28 36° 283° (WNW) 09:31:51 435.675
SEEDS 04 Mar 09:19:54 09:23:17 22° 280° (W) 09:26:33 437.485
CANX-2 04 Mar 09:26:41 09:28:55 13° 279° (W) 09:30:54 2200.000
AISAT 04 Mar 09:27:56 09:29:35 12° 100° (E) 09:31:32 437.250
ANTELSAT 04 Mar 09:30:38 09:33:39 18° 80° (E) 09:36:48 437.575/2403.000
HUMSAT D 04 Mar 09:30:53 09:33:55 20° 101° (E) 09:37:07 437.325/437.525
JUGNU 04 Mar 09:33:06 09:39:04 66° 201° (SSW) 09:45:01 437.505
VELOX 1 04 Mar 09:35:52 09:38:25 16° 100° (E) 09:41:13 145.980
FUNcube-1 04 Mar 09:36:15 09:40:23 59° 101° (ESE) 09:44:39 145.935
SRMSAT 04 Mar 09:37:00 09:42:48 53° 20° (NNE) 09:48:36 437.500
ZACube-1 04 Mar 09:38:01 09:42:11 64° 101° (ESE) 09:46:28 437.345
UKube-1 04 Mar 09:43:06 09:47:22 66° 102° (ESE) 09:51:40 .
DELFI C3 04 Mar 09:45:03 09:49:01 49° 281° (W) 09:53:00 145.870
GONETS M04 04 Mar 09:52:41 10:01:15 57° 266° (W) 10:09:51
NANOSAT C BR1 04 Mar 09:56:34 09:59:28 18° 80° (E) 10:02:32 145.865
ESTCUBE 1 04 Mar 09:57:49 09:59:33 12° 100° (E) 10:01:37 437.505/2401.250
UWE-3 04 Mar 10:00:39 10:04:40 43° 280° (W) 10:08:47 435.000/436.395/437.385
UNISAT 6 04 Mar 10:26:58 10:31:33 70° 259° (WSW) 10:35:58 437.425
Oscar 11 04 Mar 10:27:52 10:29:00 11° 279° (W) 10:29:46 145.826/435.025
QB50P1 04 Mar 10:28:32 10:32:45 55° 79° (E) 10:36:58 145.935-145.965
BUGSAT 1 04 Mar 10:31:09 10:35:07 40° 79° (E) 10:39:08 437.445
QB50P2 04 Mar 10:32:52 10:37:09 67° 79° (ENE) 10:41:24 145.880/145.840
DANDE 04 Mar 10:43:24 10:44:52 13° 89° (E) 10:46:40 436.750
DUCHIFAT 1 04 Mar 10:46:33 10:50:52 80° 258° (WSW) 10:55:08 145.980
50 SAT 04 Mar 10:46:43 10:50:29 41° 281° (W) 10:54:17 437.505
TIGRISAT 04 Mar 10:51:45 10:55:51 32° 258° (WSW) 10:59:49 435.000
DX 1 04 Mar 10:54:05 10:55:50 12° 280° (W) 10:57:17 434.975-435.025
CUBEBUG 1 04 Mar 10:59:56 11:04:17 88° 94° (E) 11:08:38 437.445
AISAT 04 Mar 11:02:19 11:06:05 27° 281° (W) 11:09:48 437.250
CUSAT 1 04 Mar 11:02:20 11:05:24 48° 87° (E) 11:09:23 437.405
ANTELSAT 04 Mar 11:06:55 11:10:20 20° 259° (W) 11:13:32 437.575/2403.000
HUMSAT D 04 Mar 11:07:07 11:09:36 15° 279° (W) 11:11:53 437.325/437.525
POPSAT HIP 1 04 Mar 11:08:37 11:12:38 37° 259° (W) 11:16:34 437.405
POLYITAN 1 04 Mar 11:08:55 11:12:55 35° 259° (WSW) 11:16:50 437.675
VELOX 1 04 Mar 11:11:27 11:14:54 22° 281° (W) 11:18:13 145.980
JUGNU 04 Mar 11:23:26 11:28:20 26° 197° (SSW) 11:33:10 437.505
TISAT 1 04 Mar 11:25:08 11:28:38 27° 101° (E) 11:32:13 437.305
SRMSAT 04 Mar 11:26:12 11:32:02 56° 201° (SSW) 11:37:52 437.500
SPROUT 04 Mar 11:26:29 11:30:17 32° 101° (E) 11:34:09 437.525
NANOSAT C BR1 04 Mar 11:32:13 11:35:13 18° 259° (W) 11:38:02 145.865
ESTCUBE 1 04 Mar 11:32:23 11:36:21 29° 281° (W) 11:40:13 437.505/2401.250
RS-15 04 Mar 11:34:33 11:43:26 22° 244° (WSW) 11:51:30 29.354- 29.394
SO-50 04 Mar 11:52:16 11:57:06 65° 248° (WSW) 12:01:49 436.795
Oscar 19 04 Mar 12:21:57 12:25:43 21° 79° (E) 12:29:39 437.125/150
ITUPSAT 1 04 Mar 12:23:18 12:26:06 16° 101° (E) 12:29:10 437.325
TISAT 1 04 Mar 13:02:58 13:04:21 11° 280° (W) 13:05:26 437.305
VERMONT LUNAR 04 Mar 13:05:02 13:08:28 83° 315° (NW) 13:11:56 437.305
JUGNU 04 Mar 13:15:32 13:18:04 13° 189° (S) 13:20:31 437.505
SRMSAT 04 Mar 13:16:55 13:21:30 22° 196° (SSW) 13:26:01 437.500
PHONESAT 2.4 04 Mar 13:20:32 13:23:57 41° 138° (SE) 13:27:23 2401.200-2431.200
SWISSCUBE 04 Mar 13:22:21 13:27:07 70° 281° (WNW) 13:31:54 437.505
BEESAT 04 Mar 13:30:42 13:35:25 60° 282° (WNW) 13:40:09 436.000
Gurwin Techsat 1B 04 Mar 13:44:06 13:48:55 36° 78° (ENE) 13:53:47 435.225
ITUPSAT 1 04 Mar 13:59:52 14:03:53 26° 281° (W) 14:07:49 437.325
Oscar 19 04 Mar 14:00:50 14:04:58 23° 259° (WSW) 14:08:54 437.125/150
ITAMSAT 1 04 Mar 14:01:42 14:06:55 89° 87° (E) 14:12:09 435.822/435.867
BEESAT 3 04 Mar 14:18:16 14:19:55 13° 114° (ESE) 14:21:48 437.485
YUBILEINY 04 Mar 14:23:22 14:29:11 21° 96° (E) 14:35:32 435.215
AO-7 04 Mar 14:25:21 14:29:47 16° 76° (ENE) 14:34:53 29.400- 29.500
BEESAT 2 04 Mar 14:44:09 14:47:25 25° 113° (ESE) 14:50:48 435.950
KKS-1 04 Mar 14:52:13 14:56:18 36° 281° (W) 15:00:21 437.445
STARS 04 Mar 14:54:21 14:58:39 59° 282° (WNW) 15:02:59 437.465
PHONESAT 2.4 04 Mar 15:00:48 15:02:23 12° 320° (NW) 15:03:50 2401.200-2431.200
M-CUBED/EXP-1 PRIME 04 Mar 15:07:43 15:10:01 14° 105° (ESE) 15:12:38 437.505
AUBIESAT-1 04 Mar 15:08:48 15:10:29 12° 104° (ESE) 15:12:33 437.475
SRMSAT 04 Mar 15:09:28 15:11:29 12° 188° (S) 15:13:26 437.500
Gurwin Techsat 1B 04 Mar 15:25:56 15:28:48 14° 259° (W) 15:31:18 435.225
HORYU 2 04 Mar 15:32:24 15:36:41 44° 258° (WSW) 15:40:53 437.375
JAS-2 04 Mar 15:35:27 15:39:56 31° 78° (ENE) 15:44:42 435.910
BEESAT 3 04 Mar 15:54:39 15:57:52 22° 293° (WNW) 16:01:02 437.485
AO-7 04 Mar 16:14:16 16:22:32 63° 255° (WSW) 16:30:43 29.400- 29.500
MOZHAYETS 4 04 Mar 16:15:42 16:20:17 61° 101° (ESE) 16:24:52
YUBILEINY 04 Mar 16:17:39 16:25:56 47° 274° (W) 16:34:07 435.215
BEESAT 2 04 Mar 16:23:58 16:25:30 12° 295° (WNW) 16:26:47 435.950
AIST 2 04 Mar 16:28:56 16:32:45 35° 293° (WNW) 16:36:35 435.215
M-CUBED/EXP-1 PRIME 04 Mar 16:40:27 16:44:45 34° 284° (WNW) 16:49:06 437.505
AUBIESAT-1 04 Mar 16:40:46 16:45:10 38° 284° (WNW) 16:49:37 437.475
ISS 04 Mar 16:53:26 16:55:55 21° 53° (NE) 16:58:31 145.825
JUGNU 04 Mar 16:55:23 16:58:17 14° 169° (S) 17:01:16 437.505
JAS-2 04 Mar 17:22:14 17:25:05 14° 260° (W) 17:27:37 435.910
STRAND 1 04 Mar 17:34:33 17:36:50 14° 101° (E) 17:39:30 437.568
Cubesat XI-IV 04 Mar 17:42:30 17:47:43 55° 78° (ENE) 17:52:58 437.490
CUTE-I 04 Mar 17:50:49 17:56:08 69° 78° (ENE) 18:01:28 437.470
PCSat 04 Mar 17:56:35 18:00:26 21° 111° (ESE) 18:04:29 145.827
AIST 1 04 Mar 18:15:13 18:19:29 57° 85° (E) 18:23:45
PRISM 04 Mar 18:17:05 18:21:17 74° 282° (WNW) 18:25:28 437.425
CUBESAT XI-V 04 Mar 18:19:50 18:24:29 77° 282° (WNW) 18:29:08 437.345
ISS 04 Mar 18:31:05 18:32:17 11° 232° (SW) 18:33:19 145.825
JUGNU 04 Mar 18:42:52 18:47:54 29° 162° (SSE) 18:52:58 437.505
SRMSAT 04 Mar 18:48:35 18:51:59 16° 168° (SSE) 18:55:29 437.500
STRAND 1 04 Mar 19:11:18 19:15:57 35° 282° (WNW) 19:20:33 437.568
GOMX 1 04 Mar 19:16:50 19:18:16 11° 81° (E) 19:20:11 467.674
BRITE-PL 04 Mar 19:19:04 19:23:16 22° 80° (E) 19:27:41 437.365/2234.400
HO-68 04 Mar 19:24:39 19:29:28 21° 77° (ENE) 19:34:39 435.675
PCSat 04 Mar 19:39:14 19:43:45 26° 291° (WNW) 19:48:06 145.827
DOVE 4 04 Mar 19:41:20 19:44:04 15° 81° (E) 19:47:05 437.250
SEEDS 04 Mar 19:51:08 19:53:47 17° 80° (E) 19:56:37 437.485
CANX-2 04 Mar 19:56:33 20:00:14 29° 80° (E) 20:03:56 2200.000
O/OREOS (USA 219) 04 Mar 20:04:18 20:08:46 58° 255° (WSW) 20:13:11 437.305
CUTE 1.7 + AOD 2 04 Mar 20:14:27 20:18:32 48° 79° (E) 20:22:37 437.475
GONETS M04 04 Mar 20:30:49 20:38:28 36° 95° (E) 20:46:15
JUGNU 04 Mar 20:31:11 20:37:03 80° 160° (SSE) 20:42:56 437.505
SRMSAT 04 Mar 20:36:21 20:41:42 35° 161° (SSE) 20:47:06 437.500
UWE-3 04 Mar 20:38:47 20:40:18 12° 81° (E) 20:42:08 435.000/436.395/437.385
AAUSAT CUBESAT 2 04 Mar 20:50:43 20:54:54 90° 80° (E) 20:59:02 437.432
GOMX 1 04 Mar 20:51:01 20:56:20 49° 259° (WSW) 21:01:33 467.674
COMPASS 1 04 Mar 20:54:56 20:59:05 64° 258° (WSW) 21:03:11 437.405
BRITE-PL 04 Mar 20:56:46 21:01:38 28° 259° (W) 21:06:21 437.365/2234.400
Oscar 11 04 Mar 20:57:56 21:01:59 41° 79° (E) 21:06:02 145.826/435.025
RS-15 04 Mar 21:02:35 21:13:24 56° 112° (ESE) 21:24:00 29.354- 29.394
CINEMA 3 04 Mar 21:09:58 21:14:59 87° 258° (WSW) 21:19:51 145.822/145.860
HO-68 04 Mar 21:10:23 21:17:06 43° 256° (WSW) 21:23:41 435.675
DOVE 4 04 Mar 21:16:51 21:21:44 36° 259° (WSW) 21:26:26 437.250
CUBEBUG 2 04 Mar 21:17:34 21:22:11 56° 79° (E) 21:26:40 437.445
DX 1 04 Mar 21:25:38 21:29:42 38° 79° (E) 21:33:48 434.975-435.025
SEEDS 04 Mar 21:26:34 21:29:30 18° 260° (W) 21:32:15 437.485
TIGRISAT 04 Mar 21:29:37 21:32:20 17° 101° (E) 21:35:18 435.000
CANX-2 04 Mar 21:35:30 21:36:04 10° 260° (W) 21:36:17 2200.000
HUMSAT D 04 Mar 21:36:32 21:40:02 25° 80° (E) 21:43:34 437.325/437.525
AISAT 04 Mar 21:39:11 21:42:17 19° 79° (E) 21:45:32 437.250
POPSAT HIP 1 04 Mar 21:43:06 21:43:39 10° 100° (E) 21:44:33 437.405
POLYITAN 1 04 Mar 21:43:13 21:44:11 11° 100° (E) 21:45:30 437.675
ANTELSAT 04 Mar 21:43:23 21:47:07 27° 101° (ESE) 21:51:01 437.575/2403.000
FUNcube-1 04 Mar 21:46:25 21:50:57 86° 79° (E) 21:55:22 145.935
DELFI C3 04 Mar 21:46:37 21:50:30 46° 259° (W) 21:54:21 145.870
VELOX 1 04 Mar 21:47:18 21:50:49 24° 79° (E) 21:54:28 145.980
ZACube-1 04 Mar 21:48:25 21:52:58 87° 259° (WSW) 21:57:23 437.345
DANDE 04 Mar 21:49:42 21:52:01 12° 103° (ESE) 21:55:03 436.750
UKube-1 04 Mar 21:52:17 21:56:39 90° 257° (WSW) 22:01:00 .
NANOSAT C BR1 04 Mar 22:02:54 22:06:05 22° 101° (E) 22:09:25 145.865
CUSAT 1 04 Mar 22:04:49 22:10:25 23° 101° (ESE) 22:15:41 437.405
ESTCUBE 1 04 Mar 22:10:58 22:14:08 20° 79° (E) 22:17:28 437.505/2401.250
UWE-3 04 Mar 22:12:40 22:16:47 31° 259° (W) 22:20:43 435.000/436.395/437.385
JUGNU 04 Mar 22:20:45 22:26:09 37° 341° (NNW) 22:31:32 437.505
SRMSAT 04 Mar 22:25:01 22:30:59 87° 337° (NNW) 22:37:00 437.500
GONETS M04 04 Mar 22:27:52 22:35:11 28° 275° (W) 22:42:06
SO-50 04 Mar 22:28:36 22:29:25 11° 115° (ESE) 22:30:36 436.795
BUGSAT 1 04 Mar 22:35:09 22:38:59 43° 101° (E) 22:42:51 437.445
QB50P1 04 Mar 22:35:19 22:39:30 70° 102° (ESE) 22:43:42 145.935-145.965
QB50P2 04 Mar 22:39:52 22:44:05 85° 99° (E) 22:48:19 145.880/145.840
UNISAT 6 04 Mar 22:40:41 22:44:53 44° 281° (W) 22:49:11 437.425
50 SAT 04 Mar 22:46:44 22:50:34 41° 259° (W) 22:54:20 437.505
DUCHIFAT 1 04 Mar 22:53:09 22:57:17 63° 281° (WNW) 23:01:26 145.980
TIGRISAT 04 Mar 23:05:35 23:08:58 21° 280° (W) 23:12:18 435.000
CUBEBUG 1 04 Mar 23:10:30 23:14:53 65° 259° (W) 23:19:16 437.445
HUMSAT D 04 Mar 23:13:43 23:15:41 12° 260° (W) 23:17:21 437.325/437.525
AISAT 04 Mar 23:15:29 23:18:46 19° 259° (W) 23:21:53 437.250
POPSAT HIP 1 04 Mar 23:15:47 23:19:27 29° 281° (W) 23:23:04 437.405
POLYITAN 1 04 Mar 23:16:23 23:20:01 27° 281° (W) 23:23:36 437.675
RS-15 04 Mar 23:17:13 23:25:43 24° 295° (WNW) 23:33:27 29.354- 29.394
ANTELSAT 04 Mar 23:21:41 23:23:51 13° 279° (W) 23:25:43 437.575/2403.000
VELOX 1 04 Mar 23:24:34 23:27:18 15° 260° (W) 23:29:46 145.980
DANDE 04 Mar 23:27:39 23:36:04 76° 274° (W) 23:42:57 436.750
TISAT 1 04 Mar 23:31:08 23:35:00 33° 79° (E) 23:38:53 437.305
SPROUT 04 Mar 23:34:34 23:38:42 44° 79° (E) 23:42:51 437.525
NANOSAT C BR1 04 Mar 23:39:33 23:41:51 14° 280° (W) 23:43:54 145.865
CUSAT 1 04 Mar 23:46:07 23:53:27 40° 273° (W) 23:59:24 437.405
ESTCUBE 1 04 Mar 23:47:40 23:50:54 19° 259° (W) 23:53:56 437.505/2401.250
SO-50 05 Mar 00:05:52 00:09:51 32° 293° (WNW) 00:13:52 436.795
SWISSCUBE 05 Mar 00:10:16 00:11:40 12° 80° (E) 00:13:28 437.505
JUGNU 05 Mar 00:12:00 00:15:38 16° 347° (NNW) 00:19:13 437.505
SRMSAT 05 Mar 00:15:00 00:20:19 32° 341° (NNW) 00:25:36 437.500
BEESAT 05 Mar 00:17:46 00:19:55 13° 80° (E) 00:22:24 436.000
VERMONT LUNAR 05 Mar 00:42:17 00:45:41 73° 42° (NE) 00:49:06 437.305
ITUPSAT 1 05 Mar 00:44:36 00:48:46 31° 79° (ENE) 00:52:59 437.325
Oscar 19 05 Mar 00:54:25 00:59:25 55° 102° (ESE) 01:04:29 437.125/150
ITAMSAT 1 05 Mar 01:00:01 01:02:36 14° 101° (E) 01:05:31 435.822/435.867
PHONESAT 2.4 05 Mar 01:01:49 01:05:07 35° 42° (NE) 01:08:26 2401.200-2431.200
KKS-1 05 Mar 01:30:20 01:32:42 15° 80° (E) 01:35:20 437.445
SWISSCUBE 05 Mar 01:45:07 01:49:28 35° 259° (WSW) 01:53:45 437.505
BEESAT 05 Mar 01:53:29 01:57:41 30° 259° (W) 02:01:47 436.000
SRMSAT 05 Mar 02:06:42 02:10:05 15° 348° (NNW) 02:13:23 437.500
HORYU 2 05 Mar 02:11:29 02:13:03 12° 100° (E) 02:14:57 437.375
BEESAT 3 05 Mar 02:13:14 02:15:18 14° 66° (ENE) 02:17:34 437.485
Gurwin Techsat 1B 05 Mar 02:22:07 02:27:25 77° 283° (WNW) 02:32:45 435.225
ITUPSAT 1 05 Mar 02:24:11 02:26:34 13° 259° (W) 02:28:37 437.325
ITAMSAT 1 05 Mar 02:37:19 02:42:00 34° 282° (WNW) 02:46:37 435.822/435.867
BEESAT 2 05 Mar 02:40:00 02:43:28 28° 67° (ENE) 02:46:58 435.950
PHONESAT 2.4 05 Mar 02:41:35 02:43:31 14° 221° (SW) 02:45:19 2401.200-2431.200
AO-7 05 Mar 02:49:35 02:56:12 28° 105° (ESE) 03:03:08 29.400- 29.500
AIST 2 05 Mar 02:52:28 02:53:27 11° 65° (ENE) 02:54:44 435.215
YUBILEINY 05 Mar 02:54:48 03:02:55 43° 86° (E) 03:11:10 435.215
KKS-1 05 Mar 03:05:32 03:09:15 24° 259° (W) 03:12:50 437.445
STARS 05 Mar 03:06:04 03:10:17 40° 259° (WSW) 03:14:26 437.465
JAS-2 05 Mar 03:07:11 03:13:08 25° 101° (E) 03:19:14 435.910
HORYU 2 05 Mar 03:45:41 03:49:36 29° 281° (W) 03:53:29 437.375
BEESAT 3 05 Mar 03:50:16 03:53:17 20° 247° (WSW) 03:56:09 437.485
JUGNU 05 Mar 03:54:05 03:55:49 11° 7° (N) 03:57:37 437.505
ISS 05 Mar 04:27:59 04:29:32 13° 128° (SE) 04:31:13 145.825
AIST 2 05 Mar 04:28:26 04:31:59 27° 247° (WSW) 04:35:25 435.215
MOZHAYETS 4 05 Mar 04:32:47 04:37:21 78° 259° (WSW) 04:41:52
AO-7 05 Mar 04:41:19 04:48:52 39° 285° (WNW) 04:56:18 29.400- 29.500
AUBIESAT-1 05 Mar 04:44:51 04:47:42 25° 255° (WSW) 04:50:26 437.475
M-CUBED/EXP-1 PRIME 05 Mar 04:45:08 04:47:49 21° 255° (WSW) 04:50:21 437.505
JAS-2 05 Mar 04:50:42 04:58:02 42° 282° (WNW) 05:05:02 435.910
YUBILEINY 05 Mar 04:52:49 04:59:39 24° 265° (W) 05:06:00 435.215
CUTE-I 05 Mar 04:53:33 04:55:37 13° 101° (E) 04:58:05 437.470
JUGNU 05 Mar 05:41:19 05:45:41 21° 15° (NNE) 05:50:10 437.505
SRMSAT 05 Mar 05:48:20 05:50:39 12° 8° (N) 05:53:03 437.500
ISS 05 Mar 06:03:32 06:05:52 18° 307° (NW) 06:08:06 145.825
STRAND 1 05 Mar 06:05:04 06:09:40 34° 78° (ENE) 06:14:19 437.568
PRISM 05 Mar 06:21:20 06:25:24 64° 258° (WSW) 06:29:29 437.425
AIST 1 05 Mar 06:22:05 06:26:24 84° 95° (E) 06:30:44
Cubesat XI-IV 05 Mar 06:22:14 06:27:22 50° 282° (WNW) 06:32:31 437.490
CUTE-I 05 Mar 06:30:39 06:35:37 40° 282° (WNW) 06:40:33 437.470
PCSat 05 Mar 06:31:26 06:36:46 64° 70° (ENE) 06:42:07 145.827
CUBESAT XI-V 05 Mar 06:38:41 06:43:06 42° 259° (W) 06:47:29 437.345
O/OREOS (USA 219) 05 Mar 06:40:20 06:40:22 10° 107° (ESE) 06:40:49 437.305
HO-68 05 Mar 07:16:52 07:20:57 17° 103° (ESE) 07:25:33 435.675
JUGNU 05 Mar 07:29:15 07:35:04 51° 20° (NNE) 07:40:53 437.505
SRMSAT 05 Mar 07:35:53 07:40:36 24° 16° (NNE) 07:45:23 437.500
GOMX 1 05 Mar 07:39:31 07:41:53 15° 100° (E) 07:44:30 467.674
STRAND 1 05 Mar 07:46:01 07:48:46 14° 259° (W) 07:51:11 437.568
BRITE-PL 05 Mar 07:46:17 07:50:02 34° 101° (E) 07:53:51 437.365/2234.400
